Погода в Сновицах

Россия / Владимирская область     56°10′24″N   40°21′14″E
темп.,
°C
ветер,
м/с
пор.,
м/с
влажн.,
%
обл.,
%
осадки,
мм/ч
давл.,
гПа
погр.,
м
9 марта, вт
вт900:00−16сз479740 0.0 1008108
03:00−17ссз469859 0.1 101196
06:00−19ссз369990 0.0 1012108
09:00−19ссз489688 0.1 1014233
12:00−16ссз479370 0.0 1015339
15:00−15ссз589183 0.0 1016443
18:00−18ссз489595 0.0 1018177
21:00−20ссз4109896 0.1 1020199
10 марта, ср
ср1000:00−23ссз479995 0.0 1022125
03:00−25ссз469989 0.1 1023111
06:00−27ссз499843 0.0 1025145
09:00−26с489629 0.0 1027217
12:00−22ссз469311 0.0 1028301
15:00−18ссз478911 0.0 1028385
18:00−21сз34920 0.0 102836
21:00−21сз46932 0.0 103091
11 марта, чт
чт1100:00−22сз369777 0.0 103082
03:00−23сз349977 0.0 103148
06:00−23сз339927 0.0 103230
09:00−20сз349713 0.0 1033129
12:00−15сз24907 0.0 1032237
15:00−12зсз248715 0.0 1032312
18:00−16зсз12937 0.0 103120
21:00−17зюз23948 0.0 103220
12 марта, пт
пт1200:00−18юз34970 0.0 103235
03:00−19юз34960 0.0 103253
06:00−21юз46930 0.0 103295
09:00−18ююз59850 0.0 1032242
12:00−12ююз510790 0.0 1031443
15:00−9ююз611770 0.0 1030664
18:00−12ююз612820 0.0 1029317
21:00−15ююз615890 0.0 1029350
13 марта, сб
сб1300:00−15ю615880 0.0 1028370
03:00−15ю715860 0.0 1027384
06:00−14ю7168478 0.0 1025492
09:00−11ю9168389 0.0 1023712
12:00−7ю91591100 0.3 1022931
15:00−6ююз91591100 0.7 1021933
18:00−6ююз81491100 0.3 1020732
21:00−7ююз71492100 0.4 1020525